[[{"header":{"parameterUnit":"m.s-1","parameterCategory":1,"la1":30.2991,"la2":30.254,"lo1":-89.0895,"lo2":-89.0444,"dy":0.0017,"dx":0.0017,"nx":28,"ny":28,"refTime":"2024-03-31T09:00:00:Z","depth":0,"parameterNumber":2,"parameterNumberName":"U-component_of_WINDS"},"data":[0,0,0,0,0,0,0,0,0,0,0,0,0,0,0,0,0,0,0,0,0,0,0,0,0,0,0,0,0,0,0,0,0,0,0,0,0,0,0,0,0,0,0,0,0,0,0,0,0,0,0,0,0,0,0,0,0,0,-1.137,-1.137,0,-1.1341,-1.1341,-1.134,-1.1316,-1.1316,-1.1316,-1.1316,-1.1285,-1.1284,-1.1284,0,0,0,0,0,0,0,0,0,0,0,0,0,-1.1403,-1.1402,-1.137,-1.1369,-1.1369,-1.1341,-1.1341,-1.134,-1.1316,-1.1316,-1.1316,-1.1315,-1.1285,-1.1284,-1.1284,0,0,0,0,0,0,0,0,0,0,0,0,0,-1.1383,-1.1402,-1.137,-1.1354,-1.1352,-1.1341,-1.1341,-1.134,-1.1316,-1.1316,-1.1316,-1.1315,-1.1285,-1.1284,-1.1284,-1.1286,0,0,-1.1281,-1.1281,0,0,0,0,0,0,0,0,-1.1384,-1.1382,-1.1357,-1.1355,-1.1353,-1.1332,-1.1341,-1.1322,-1.1317,-1.133,-1.1316,-1.1315,-1.1301,-1.1299,-1.1294,-1.1284,-1.1283,-1.1281,-1.128,-1.128,-1.128,0,0,0,0,0,0,0,-1.1385,-1.1383,-1.1358,-1.1356,-1.1354,-1.1348,-1.1344,-1.1337,-1.1318,-1.1329,-1.1327,-1.1324,-1.13,-1.1295,-1.1293,-1.1283,-1.1281,-1.128,-1.128,-1.1279,-1.1273,-1.1273,0,0,0,0,0,0,-1.1389,-1.1384,-1.1359,-1.1358,-1.1368,-1.1347,-1.1344,-1.1339,-1.1318,-1.1314,-1.1324,-1.1323,-1.1297,-1.1294,-1.1292,-1.1292,-1.128,-1.1279,-1.1279,-1.1272,-1.1273,-1.1273,0,0,0,0,0,0,-1.139,-1.1387,-1.136,-1.137,-1.1366,-1.1347,-1.1342,-1.1339,-1.1334,-1.1314,-1.1311,-1.1323,-1.1296,-1.1293,-1.1287,-1.1291,-1.1279,-1.1278,-1.1272,-1.1273,-1.1273,-1.1294,0,0,0,0,0,0,-1.1391,-1.1388,-1.1389,-1.137,-1.1366,-1.1357,-1.1342,-1.1338,-1.1333,-1.1331,-1.1312,-1.1309,-1.1296,-1.1289,-1.1287,-1.129,-1.1277,-1.1272,-1.1272,-1.1273,-1.1293,-1.1295,-1.1297,0,0,0,0,0,-1.1392,-1.1396,-1.1389,-1.1386,-1.1367,-1.1357,-1.1355,-1.134,-1.1333,-1.1333,-1.1321,-1.1309,-1.1291,-1.1289,-1.1286,-1.1289,-1.1271,-1.1272,-1.1273,-1.1292,-1.1295,-1.1297,0,0,0,0,0,0,-1.1414,-1.1393,-1.1385,-1.1383,-1.1372,-1.1353,-1.1353,-1.1343,-1.1334,-1.1332,-1.1314,-1.131,-1.1306,-1.1297,-1.1294,-1.1289,-1.128,-1.128,-1.1295,-1.1298,-1.13,-1.1302,-1.1277,0,0,0,0,0,-1.1419,-1.1414,-1.1395,-1.1395,-1.139,-1.1373,-1.1368,-1.1357,-1.1345,-1.1341,-1.1328,-1.1316,-1.1308,-1.1302,-1.1294,-1.1292,-1.1287,-1.1293,-1.1295,-1.1297,-1.1297,-1.1294,-1.1296,-1.1276,-1.1276,-1.1276,0,0,-1.1429,-1.1416,-1.1414,-1.1399,-1.1389,-1.1383,-1.1369,-1.1363,-1.1359,-1.1339,-1.1333,-1.1324,-1.1309,-1.1306,-1.1303,-1.1298,-1.1302,-1.1298,-1.1299,-1.1298,-1.1296,-1.1297,-1.1299,-1.1276,-1.1276,-1.1276,0,0,-1.1442,-1.1433,-1.1431,-1.1422,-1.1408,-1.1396,-1.1396,-1.1379,-1.1372,-1.1365,-1.1351,-1.1345,-1.1331,-1.1321,-1.1314,-1.1325,-1.1314,-1.1323,-1.1333,-1.1332,-1.1333,-1.1334,-1.1337,-1.1339,-1.1323,-1.1323,-1.1323,0,-1.1455,-1.1446,-1.1431,-1.1427,-1.142,-1.1403,-1.1401,-1.1393,-1.1376,-1.1372,-1.1367,-1.1349,-1.1338,-1.1331,-1.1334,-1.1329,-1.1328,-1.1324,-1.1334,-1.1335,-1.1336,-1.1339,-1.134,-1.1324,-1.1324,-1.1324,-1.1324,0,-1.1463,-1.1457,-1.1457,-1.1442,-1.1436,-1.1432,-1.1416,-1.1412,-1.1402,-1.1391,-1.1385,-1.1371,-1.1359,-1.1357,-1.1348,-1.1349,-1.1346,-1.1338,-1.1327,-1.134,-1.1342,-1.1343,-1.1326,-1.1325,-1.1325,-1.1325,0,0,-1.1489,-1.1466,-1.1466,-1.1459,-1.1442,-1.1437,-1.1433,-1.1422,-1.1418,-1.1407,-1.1402,-1.1391,-1.1383,-1.1376,-1.1365,-1.1363,-1.1371,-1.1355,-1.1354,-1.1358,-1.1371,-1.1377,-1.1379,-1.1364,-1.1365,-1.1365,-1.1372,0,-1.1499,-1.1491,-1.1477,-1.1473,-1.1467,-1.1451,-1.1447,-1.1436,-1.1426,-1.1419,-1.1408,-1.14,-1.139,-1.1386,-1.1383,-1.1371,-1.1374,-1.137,-1.1359,-1.1359,-1.1362,-1.138,-1.1386,-1.1394,-1.1373,-1.1373,-1.1373,0,-1.151,-1.1501,-1.1496,-1.1479,-1.1476,-1.1473,-1.1461,-1.1455,-1.1443,-1.1435,-1.1427,-1.1415,-1.1409,-1.1401,-1.1392,-1.139,-1.1385,-1.1378,-1.1378,-1.1375,-1.1366,-1.1377,-1.1396,-1.1397,-1.1375,-1.1375,-1.1374,0,-1.1528,-1.1515,-1.151,-1.1504,-1.1485,-1.1483,-1.1475,-1.1462,-1.1456,-1.1446,-1.1442,-1.1431,-1.1425,-1.1417,-1.1402,-1.1397,-1.1395,-1.1385,-1.1388,-1.1388,-1.1387,-1.1387,-1.1404,-1.1385,-1.1385,-1.1385,-1.1385,0,-1.1541,-1.1538,-1.1518,-1.1515,-1.1511,-1.1496,-1.1492,-1.1483,-1.1471,-1.1466,-1.1452,-1.1447,-1.1428,-1.1421,-1.141,-1.1404,-1.1401,-1.1395,-1.1391,-1.1395,-1.1396,-1.1391,-1.1389,-1.1386,-1.1385,-1.1385,-1.1385,0,-1.156,-1.1546,-1.154,-1.1523,-1.1518,-1.1516,-1.1501,-1.1497,-1.1487,-1.148,-1.1477,-1.146,-1.1451,-1.1436,-1.1422,-1.1415,-1.141,-1.1406,-1.1415,-1.1412,-1.1415,-1.1415,-1.1429,-1.143,-1.1412,-1.1412,-1.1412,0,-1.1568,-1.1566,-1.1548,-1.1544,-1.1536,-1.1529,-1.1523,-1.1508,-1.1502,-1.1487,-1.1485,-1.1475,-1.1466,-1.1451,-1.1437,-1.1427,-1.1421,-1.1427,-1.1419,-1.1423,-1.142,-1.142,-1.1419,-1.1428,-1.1429,-1.1429,-1.1429,0,-1.1584,-1.1577,-1.1569,-1.1559,-1.1552,-1.1543,-1.1533,-1.153,-1.1512,-1.1506,-1.1497,-1.149,-1.1476,-1.1466,-1.1453,-1.1444,-1.1433,-1.1432,-1.1431,-1.1435,-1.144,-1.1436,-1.1418,-1.1431,-1.1431,-1.1431,-1.1431,-1.1431,-1.1597,-1.1594,-1.1581,-1.1573,-1.1564,-1.1555,-1.155,-1.1539,-1.1531,-1.1519,-1.151,-1.1501,-1.1488,-1.147,-1.1462,-1.1455,-1.145,-1.145,-1.145,-1.145,-1.1451,-1.1442,-1.1452,-1.1452,-1.1452,-1.1452,-1.1452,0,-1.1611,-1.1602,-1.1595,-1.1582,-1.1575,-1.1566,-1.1555,-1.1549,-1.1541,-1.1531,-1.1522,-1.1511,-1.1501,-1.1486,-1.1475,-1.1472,-1.1466,-1.1469,-1.1469,-1.1467,-1.1456,-1.1457,-1.1474,-1.1474,-1.1474,-1.1474,-1.1474,-1.1474,-1.1618,-1.1612,-1.1604,-1.1594,-1.1585,-1.1576,-1.157,-1.1561,-1.1553,-1.1541,-1.1533,-1.1524,-1.1511,-1.1499,-1.1489,-1.1485,-1.1481,-1.1485,-1.148,-1.147,-1.1468,-1.1466,-1.1466,-1.1485,-1.1485,-1.1491,-1.1491,-1.1491]},{"header":{"parameterUnit":"m.s-1","parameterCategory":1,"la1":30.2991,"la2":30.254,"lo1":-89.0895,"lo2":-89.0444,"dy":0.0017,"dx":0.0017,"nx":28,"ny":28,"refTime":"2024-03-31T09:00:00:Z","depth":0,"parameterNumber":3,"parameterNumberName":"V-component_of_WINDS"},"data":[0,0,0,0,0,0,0,0,0,0,0,0,0,0,0,0,0,0,0,0,0,0,0,0,0,0,0,0,0,0,0,0,0,0,0,0,0,0,0,0,0,0,0,0,0,0,0,0,0,0,0,0,0,0,0,0,0,0,3.8851,3.8852,0,3.8989,3.899,3.8992,3.9015,3.9013,3.9012,3.9011,3.9147,3.9152,3.9157,0,0,0,0,0,0,0,0,0,0,0,0,0,3.8602,3.8606,3.885,3.8852,3.8854,3.8989,3.899,3.8992,3.9015,3.9013,3.9012,3.9011,3.9146,3.9151,3.9157,0,0,0,0,0,0,0,0,0,0,0,0,0,3.8722,3.8608,3.885,3.8882,3.8886,3.8988,3.899,3.8993,3.9015,3.9013,3.9012,3.901,3.9144,3.9151,3.9158,3.9237,0,0,3.9179,3.9183,0,0,0,0,0,0,0,0,3.8715,3.8731,3.8875,3.888,3.8884,3.8983,3.8953,3.9074,3.9016,3.8966,3.9011,3.9009,3.9094,3.9105,3.9134,3.9243,3.9249,3.918,3.9184,3.9187,3.9189,0,0,0,0,0,0,0,3.8707,3.8725,3.8905,3.8877,3.8883,3.8887,3.8902,3.8976,3.9038,3.897,3.8972,3.8988,3.9096,3.9128,3.9138,3.9251,3.918,3.9186,3.9191,3.9193,3.9434,3.9436,0,0,0,0,0,0,3.8693,3.8718,3.8901,3.8909,3.8794,3.8893,3.891,3.8953,3.9037,3.9048,3.899,3.8989,3.9116,3.9129,3.9143,3.9243,3.9187,3.9194,3.9198,3.9432,3.9434,3.9437,0,0,0,0,0,0,3.8688,3.8709,3.8895,3.8814,3.8838,3.89,3.8947,3.8957,3.8988,3.9052,3.9063,3.9011,3.9115,3.9133,3.9214,3.9248,3.9197,3.9204,3.9429,3.9432,3.9435,3.9442,0,0,0,0,0,0,3.8681,3.8707,3.8739,3.8815,3.8843,3.8966,3.8949,3.8961,3.9001,3.9001,3.9075,3.9085,3.9115,3.9204,3.9221,3.9257,3.9209,3.9426,3.9431,3.9434,3.9439,3.9445,3.945,0,0,0,0,0,3.8672,3.8734,3.874,3.8762,3.8884,3.8967,3.8983,3.9018,3.9004,3.9036,3.9077,3.9083,3.9241,3.9212,3.9232,3.927,3.9424,3.9429,3.9434,3.9437,3.9444,3.945,0,0,0,0,0,0,3.8658,3.8744,3.8753,3.8841,3.8897,3.8971,3.9012,3.9024,3.9084,3.9081,3.912,3.9136,3.9216,3.9251,3.9217,3.9352,3.9331,3.934,3.9327,3.9334,3.9339,3.933,3.9215,0,0,0,0,0,3.8665,3.8728,3.8799,3.887,3.8898,3.8951,3.8988,3.9011,3.9069,3.9092,3.9139,3.9195,3.9257,3.9297,3.9358,3.9444,3.9461,3.948,3.9485,3.949,3.9497,3.9547,3.9557,3.9452,3.9452,3.9452,0,0,3.8681,3.8736,3.8773,3.8869,3.8915,3.8978,3.897,3.9036,3.9084,3.9102,3.9183,3.9219,3.9283,3.9368,3.9408,3.9399,3.953,3.9496,3.9499,3.9504,3.9553,3.9563,3.9572,3.9456,3.9455,3.9454,0,0,3.8742,3.879,3.8856,3.8903,3.8973,3.9008,3.9023,3.9096,3.9122,3.9204,3.922,3.9275,3.9381,3.9427,3.9464,3.9544,3.9553,3.9563,3.9592,3.964,3.9648,3.9656,3.9686,3.9696,3.957,3.957,3.957,0,3.8753,3.885,3.8887,3.8955,3.8997,3.9018,3.9085,3.9128,3.9213,3.9242,3.9231,3.9367,3.9411,3.9508,3.9528,3.9556,3.9576,3.9555,3.9644,3.9652,3.966,3.9689,3.97,3.9571,3.9571,3.9571,3.957,0,3.886,3.8927,3.8971,3.9057,3.9104,3.917,3.9216,3.9259,3.9277,3.9313,3.9396,3.9451,3.9524,3.9548,3.9565,3.9648,3.9641,3.9637,3.9618,3.967,3.9698,3.971,3.9572,3.9572,3.9571,3.9571,0,0,3.8916,3.9023,3.9039,3.9079,3.9159,3.9211,3.9277,3.9351,3.9388,3.9446,3.9503,3.9593,3.9591,3.9633,3.9656,3.9698,3.976,3.9689,3.9691,3.9702,3.9856,3.986,3.9872,3.9766,3.9768,3.977,3.9851,0,3.8989,3.9112,3.9148,3.9251,3.9314,3.9336,3.9394,3.9449,3.9484,3.9541,3.9578,3.9643,3.9634,3.966,3.9702,3.9743,3.9792,3.9738,3.9819,3.9822,3.9805,3.9887,3.9891,3.9965,3.9862,3.9864,3.9865,0,3.9089,3.9153,3.9263,3.9337,3.9364,3.9417,3.9488,3.9543,3.9605,3.9627,3.9675,3.9695,3.9765,3.9741,3.9838,3.9801,3.9836,3.9862,3.9865,3.9875,3.9848,3.99,3.9989,4.0001,3.9883,3.9881,3.988,0,3.9122,3.9234,3.9315,3.9348,3.9436,3.9473,3.951,3.9571,3.9614,3.9675,3.9703,3.9771,3.9808,3.986,3.9896,3.9875,3.9991,3.997,4.0012,4.0011,4.0036,4.0035,4.0134,4.0056,4.0056,4.0056,4.0056,0,3.92,3.9267,3.9332,3.9382,3.9457,3.9497,3.9571,3.9609,3.9663,3.972,3.9742,3.9794,3.9839,3.9898,3.9927,4.0004,4.002,4.004,4.0047,4.0039,4.0037,4.0064,4.006,4.0059,4.0058,4.0058,4.0057,0,3.925,3.9296,3.9386,3.9462,3.9483,3.9535,3.96,3.9649,3.9685,3.9757,3.9776,3.9832,3.9902,3.9944,4.0032,4.0051,4.0137,4.0141,4.0117,4.0121,4.0161,4.0157,4.0283,4.0302,4.0209,4.021,4.0211,0,3.9297,3.935,3.9433,3.9474,3.9513,3.9578,3.9622,3.9663,3.9708,3.9785,3.9824,3.9896,3.9957,4.0067,4.0115,4.0183,4.0189,4.0229,4.02,4.0191,4.0192,4.019,4.0196,4.0234,4.0235,4.0235,4.0236,0,3.9378,3.9398,3.9463,3.9535,3.9588,3.9647,3.9705,3.9736,3.9787,3.9836,3.991,3.9957,4.0048,4.012,4.0192,4.0229,4.0241,4.0245,4.0258,4.0252,4.0236,4.0247,4.0132,4.0242,4.0241,4.0241,4.024,4.024,3.9429,3.9478,3.9545,3.9615,3.9664,3.9718,3.9769,3.9812,3.9875,3.9954,3.9974,4.0051,4.0113,4.0211,4.025,4.0311,4.0304,4.0324,4.0329,4.0333,4.0336,4.0226,4.0324,4.0324,4.0323,4.0323,4.0323,0,3.9512,3.9557,3.9622,3.9704,3.976,3.9768,3.9833,3.9879,3.9948,4.0005,4.0065,4.0149,4.0219,4.0273,4.0344,4.0382,4.039,4.04,4.0398,4.0407,4.0336,4.0318,4.0393,4.0393,4.0393,4.0393,4.0393,4.0393,3.9562,3.9646,3.9674,3.9782,3.9825,3.9903,3.994,3.999,4.0036,4.0131,4.019,4.0225,4.0281,4.0357,4.0422,4.0435,4.0461,4.0471,4.0486,4.0419,4.0411,4.0404,4.0388,4.0475,4.0476,4.0551,4.0552,4.0553]}]]